Wind_Speed
36 36 36 37 37 37 38 37 37 36 36 35 36 36 36 36 36 37 36 36 36 36 36 35 35 34 35 35 35 35 35 35 34 34 34 33 33 33 32 32 32 32 32
37 37 37 37 37 37 37 37 37 37 37 36 37 37 37 37 37 38 38 38 38 38 37 37 37 36 36 37 37 37 37 36 36 36 36 36 36 35 35 35 35 34 34
37 37 38 37 37 38 38 39 39 39 38 38 38 39 39 39 39 39 39 39 39 39 39 39 39 38 38 38 39 39 39 38 38 39 38 38 38 38 38 38 37 37 36
39 39 39 39 39 39 39 39 39 39 39 39 39 39 40 40 40 40 40 41 42 42 42 41 41 40 41 41 41 41 41 41 41 41 41 41 41 40 40 40 39 39 38
39 39 39 40 40 40 40 39 39 39 40 40 40 40 40 40 40 40 41 41 43 43 42 41 42 43 43 43 43 43 43 43 43 44 44 44 43 43 42 42 41 41 40
41 41 41 41 41 41 41 41 41 41 42 42 42 42 41 41 41 41 42 42 43 43 43 43 43 44 44 44 45 45 45 45 45 45 46 46 46 45 45 44 43 42 42
41 41 42 43 42 42 43 43 43 43 44 44 44 44 43 43 43 43 43 44 44 44 44 44 45 46 46 46 46 46 46 46 46 46 46 47 47 47 46 45 44 44 44
40 40 41 42 43 44 45 45 44 45 45 46 46 45 45 45 45 45 45 45 45 45 45 46 46 47 47 48 48 48 48 48 48 48 48 48 48 48 47 47 46 46 46
40 41 42 43 44 44 44 45 46 46 46 47 47 47 47 47 47 47 47 46 46 47 47 47 48 48 48 49 49 49 50 50 50 50 50 50 49 49 49 49 48 48 48
42 42 42 41 42 43 43 44 44 45 45 46 47 48 48 48 48 48 47 47 48 48 49 48 48 48 49 49 50 50 51 51 51 51 51 51 50 51 51 50 50 50 49
43 43 42 41 41 42 44 44 44 44 45 46 47 48 48 49 50 49 49 48 48 49 49 49 49 49 49 50 50 50 50 51 51 51 50 51 51 51 52 52 51 51 50
42 43 43 42 42 43 44 45 45 45 46 46 47 48 49 50 50 50 50 49 49 49 49 50 51 51 50 50 51 52 51 51 51 51 51 51 52 53 53 53 53 52 52
41 43 43 43 42 43 44 44 45 45 46 47 47 48 49 50 50 51 51 51 51 49 49 50 52 52 51 51 52 52 52 52 52 52 52 52 53 54 54 54 54 55 55
42 43 43 43 43 44 44 44 44 45 47 47 48 48 49 50 50 51 51 52 52 51 50 50 51 52 53 53 53 53 54 54 54 54 54 54 55 55 55 55 55 56 56
41 41 42 43 43 43 43 43 44 45 46 48 48 49 49 49 50 51 52 52 52 52 51 50 51 52 52 53 52 53 53 54 54 55 55 55 56 56 56 56 55 55 55
40 40 41 42 42 43 43 44 44 45 46 47 48 48 48 49 49 50 50 50 51 52 51 51 51 52 52 53 53 53 53 53 54 54 55 55 55 54 54 54 54 54 53
41 41 41 41 42 43 43 44 45 45 45 46 47 48 48 48 49 49 49 49 50 51 51 51 51 52 52 52 53 53 54 54 53 54 53 53 52 52 52 51 51 51 51
41 41 41 41 41 42 43 43 43 44 44 45 46 47 48 47 47 47 47 48 48 49 50 50 51 51 52 52 52 52 53 53 53 52 52 51 50 50 50 49 50 51 51
42 41 41 41 41 42 43 43 43 43 44 44 45 45 46 46 45 45 46 46 47 48 49 50 49 49 50 51 52 52 52 52 51 51 51 50 50 49 49 48 48 49 50
42 42 41 42 42 43 42 42 41 42 42 42 42 42 43 43 44 44 44 44 46 46 47 48 48 48 48 49 51 51 50 49 49 49 49 49 49 49 48 47 47 48 48
41 41 41 41 41 42 41 41 40 40 40 40 40 41 41 41 42 42 42 42 43 44 44 45 45 46 47 48 49 49 49 47 47 47 48 48 48 48 46 46 47 47 48
40 40 40 40 39 39 39 39 39 39 39 39 39 39 40 41 42 42 41 41 42 43 43 44 45 45 45 46 46 47 47 46 46 46 46 47 48 48 47 46 46 46 46
38 38 39 38 38 38 38 38 38 38 39 39 39 39 40 40 40 41 41 42 42 42 43 43 43 43 44 45 45 45 46 46 45 46 46 46 46 46 47 47 46 45 46
36 37 37 38 38 38 38 37 37 38 38 38 38 38 39 38 38 40 41 42 43 43 42 42 42 42 42 43 43 44 44 44 45 45 46 45 46 46 46 45 45 45 45
35 36 36 37 37 37 37 37 37 37 37 38 38 38 38 39 39 40 41 42 43 43 42 41 41 41 41 42 42 42 42 44 44 44 45 45 44 44 44 44 43 43 43
35 35 35 35 35 36 36 37 37 37 37 37 38 38 38 39 39 40 41 41 41 41 41 40 40 40 40 40 40 41 42 43 43 43 43 42 42 42 42 42 42 42 42
Wind_Direction
262 262 263 264 266 267 266 265 265 265 265 264 263 263 263 263 263 262 263 264 264 265 265 265 266 267 268 268 269 270 270 270 270 270 271 271 272 273 273 274 275 275 275
262 263 264 265 266 266 266 265 265 265 264 264 264 264 263 264 264 263 263 263 264 264 264 265 266 267 268 269 269 270 269 269 270 270 270 271 271 272 274 275 275 275 275
262 263 264 264 265 266 267 266 264 264 264 264 264 264 264 264 264 264 263 262 263 264 264 265 266 267 268 269 269 269 269 269 270 270 271 271 271 272 273 274 275 275 275
263 265 266 265 266 266 266 266 265 264 265 266 265 264 264 264 265 265 264 263 263 263 264 265 266 266 267 268 269 269 269 269 270 271 271 271 271 271 272 273 274 274 274
265 266 266 266 267 267 267 266 266 265 266 266 266 265 265 265 265 265 265 264 263 263 264 266 266 266 267 268 268 268 269 269 270 270 271 272 272 271 272 273 273 273 272
267 267 266 267 267 267 266 266 266 267 267 266 267 266 266 266 266 266 266 266 266 265 264 265 266 267 267 268 268 268 269 269 269 270 270 271 271 272 272 272 272 271 271
267 267 267 267 267 266 266 265 266 268 267 267 267 266 266 266 267 267 267 267 266 265 264 265 266 268 269 269 269 269 269 269 269 270 271 271 271 271 271 270 270 270 270
268 268 267 267 267 267 267 266 266 268 268 268 267 266 266 267 267 268 268 268 267 267 266 267 268 269 270 269 269 269 269 269 269 270 271 271 271 271 270 269 269 269 269
268 269 268 268 268 268 267 266 266 267 267 267 267 267 267 267 267 267 267 268 269 269 269 269 269 269 270 270 270 269 269 269 269 269 269 270 270 270 270 269 268 268 268
267 268 268 269 269 269 268 268 267 267 267 267 267 267 268 268 268 267 267 269 270 270 269 269 269 269 270 271 271 270 270 269 269 268 268 269 269 269 269 268 268 267 268
267 267 269 268 268 268 268 267 268 267 267 267 267 268 268 268 268 268 267 268 269 270 269 269 269 269 269 270 271 271 271 270 269 268 268 268 269 268 268 267 267 267 267
267 267 268 268 268 269 269 269 268 268 267 267 268 269 269 269 269 269 269 269 270 269 269 270 269 269 269 270 270 271 271 270 269 268 269 269 269 268 267 267 267 267 267
269 268 268 268 269 270 270 269 269 268 267 268 269 270 270 270 270 270 270 270 270 270 270 270 270 269 270 270 270 271 271 270 270 269 269 270 269 268 267 267 267 267 266
272 271 269 271 271 270 270 270 270 270 269 269 269 270 271 271 271 272 272 272 271 270 270 271 270 270 272 271 271 271 270 270 270 270 270 270 268 267 267 266 266 266 266
273 272 271 272 272 272 273 272 271 272 272 271 271 272 272 272 272 273 273 272 272 271 271 272 272 272 272 271 271 271 270 271 271 271 271 270 269 268 267 266 266 266 266
274 273 272 272 273 274 274 274 274 275 275 274 273 273 273 274 274 275 274 273 273 273 273 273 273 272 271 271 271 271 271 271 271 272 272 271 270 269 268 268 267 266 266
274 275 274 273 273 273 274 275 276 276 276 275 275 275 275 275 275 275 275 274 274 273 274 274 274 273 272 271 271 271 270 271 272 272 272 272 271 269 268 268 268 266 265
274 275 275 275 275 275 276 277 277 277 277 277 277 276 276 276 276 275 275 275 275 274 275 275 274 273 272 271 271 271 271 270 272 272 271 270 269 269 267 267 267 265 265
274 275 275 275 276 277 277 278 278 278 278 278 278 277 276 276 276 276 276 276 276 276 276 275 274 273 272 272 271 272 272 271 271 271 270 269 268 267 267 268 266 266 266
274 275 276 276 277 278 278 278 279 279 278 279 280 279 278 278 278 278 278 278 278 278 277 276 275 274 273 273 273 272 271 271 270 270 269 269 268 267 268 267 266 266 267
276 276 277 278 278 278 278 279 279 279 279 280 280 280 279 279 280 280 279 279 280 280 279 277 276 275 275 275 274 272 270 269 269 269 269 269 269 268 268 269 268 267 267
277 277 278 278 278 279 279 280 280 280 279 280 280 280 280 279 279 280 280 279 280 281 279 279 278 278 278 277 276 273 270 268 268 269 269 269 269 268 267 267 268 267 266
278 279 280 279 278 279 279 281 281 281 281 281 281 281 280 279 278 279 279 280 282 282 281 280 280 280 279 278 276 274 272 270 270 270 270 269 268 268 267 267 267 266 266
278 279 279 279 280 280 280 281 281 282 282 282 281 280 280 279 279 279 280 282 283 282 281 281 280 280 280 279 278 276 274 272 272 272 272 270 268 268 267 267 267 267 267
279 280 280 280 279 279 280 282 283 283 283 282 282 281 280 280 280 281 282 283 284 282 281 281 281 280 278 278 278 278 276 274 273 273 272 271 269 267 266 266 266 267 267
280 281 281 281 280 280 281 282 283 284 284 283 283 282 281 281 281 283 284 285 284 282 280 280 281 280 280 280 280 279 278 276 274 273 273 272 271 267 265 265 266 267 267
Height
5783 5783 5783 5783 5783 5783 5782 5783 5783 5783 5783 5784 5784 5785 5785 5786 5786 5787 5788 5789 5789 5790 5790 5790 5790 5791 5791 5790 5790 5790 5790 5790 5790 5789 5789 5789 5788 5787 5787 5786 5786 5785 5785
5774 5774 5774 5774 5774 5773 5773 5773 5774 5774 5774 5775 5775 5776 5776 5777 5777 5778 5779 5780 5780 5781 5781 5782 5782 5782 5782 5782 5782 5782 5781 5781 5781 5781 5781 5780 5780 5779 5779 5778 5778 5777 5777
5765 5765 5765 5764 5764 5763 5763 5763 5764 5765 5765 5765 5766 5766 5767 5767 5768 5768 5769 5770 5771 5771 5772 5772 5773 5773 5773 5773 5773 5773 5772 5772 5772 5772 5772 5771 5771 5771 5770 5770 5769 5769 5768
5756 5756 5755 5754 5754 5754 5754 5754 5754 5755 5755 5756 5756 5757 5757 5758 5758 5759 5759 5760 5760 5761 5762 5763 5763 5763 5763 5764 5763 5763 5763 5763 5762 5762 5762 5762 5761 5761 5760 5760 5759 5759 5758
5746 5746 5745 5745 5744 5744 5744 5745 5745 5746 5746 5747 5747 5747 5748 5748 5749 5749 5749 5749 5749 5750 5751 5752 5752 5753 5753 5753 5753 5753 5753 5752 5752 5752 5751 5751 5750 5750 5750 5749 5749 5748 5748
5736 5736 5735 5735 5735 5735 5735 5736 5736 5736 5737 5737 5737 5738 5739 5739 5739 5739 5739 5739 5739 5739 5740 5740 5741 5741 5742 5742 5742 5742 5742 5741 5741 5740 5740 5739 5739 5739 5738 5738 5738 5737 5737
5726 5726 5725 5725 5725 5725 5726 5726 5726 5727 5727 5727 5728 5728 5729 5729 5729 5729 5729 5729 5729 5729 5729 5729 5729 5730 5730 5730 5730 5730 5730 5730 5729 5729 5728 5728 5727 5727 5726 5726 5726 5726 5726
5717 5716 5716 5715 5715 5715 5715 5716 5716 5716 5717 5717 5717 5717 5719 5720 5719 5719 5718 5718 5717 5717 5718 5718 5718 5718 5718 5718 5718 5718 5718 5717 5717 5716 5716 5715 5715 5715 5714 5714 5714 5714 5714
5707 5706 5706 5705 5705 5705 5705 5705 5705 5706 5706 5706 5706 5706 5707 5708 5708 5709 5707 5707 5706 5706 5706 5706 5705 5705 5705 5706 5706 5705 5705 5705 5704 5704 5703 5703 5702 5702 5702 5702 5702 5702 5702
5697 5696 5695 5695 5695 5695 5695 5694 5694 5695 5695 5695 5695 5695 5695 5695 5695 5696 5697 5696 5695 5694 5694 5693 5693 5693 5692 5692 5692 5692 5692 5691 5691 5690 5690 5690 5689 5689 5689 5689 5689 5689 5689
5687 5686 5685 5685 5685 5684 5684 5684 5684 5684 5684 5684 5684 5684 5683 5683 5682 5683 5684 5684 5683 5682 5681 5680 5680 5680 5679 5679 5679 5679 5678 5677 5677 5677 5676 5676 5676 5675 5675 5675 5675 5676 5676
5677 5676 5675 5674 5674 5674 5674 5673 5673 5672 5672 5672 5672 5671 5671 5671 5670 5669 5670 5670 5670 5669 5668 5667 5666 5666 5666 5665 5665 5665 5664 5663 5663 5662 5662 5662 5661 5661 5661 5661 5661 5662 5662
5666 5665 5664 5664 5663 5663 5662 5662 5661 5661 5660 5660 5660 5659 5658 5658 5657 5656 5656 5656 5656 5656 5655 5654 5652 5651 5651 5651 5651 5650 5649 5649 5648 5648 5647 5647 5647 5646 5646 5646 5646 5646 5647
5656 5655 5654 5653 5652 5652 5651 5650 5650 5649 5649 5648 5647 5646 5645 5645 5644 5643 5642 5641 5642 5642 5642 5641 5639 5637 5637 5636 5636 5635 5635 5634 5634 5633 5632 5632 5631 5631 5630 5630 5630 5630 5631
5646 5644 5643 5643 5642 5641 5640 5639 5639 5638 5637 5636 5635 5633 5632 5632 5630 5629 5628 5627 5627 5627 5628 5627 5626 5624 5622 5622 5621 5620 5620 5619 5618 5617 5617 5616 5615 5615 5614 5614 5614 5614 5615
5635 5634 5633 5632 5632 5631 5629 5628 5627 5626 5625 5623 5622 5621 5620 5618 5617 5615 5614 5613 5612 5612 5613 5613 5612 5610 5609 5608 5606 5605 5604 5603 5603 5601 5600 5600 5599 5598 5598 5598 5598 5598 5599
5625 5624 5623 5622 5621 5620 5619 5617 5616 5614 5613 5611 5610 5608 5607 5605 5604 5602 5601 5600 5599 5598 5597 5598 5596 5595 5594 5593 5592 5590 5589 5588 5587 5586 5585 5584 5583 5583 5583 5583 5583 5583 5584
5616 5614 5613 5612 5611 5609 5608 5606 5604 5602 5601 5599 5598 5596 5594 5592 5591 5589 5587 5586 5585 5584 5583 5583 5582 5581 5579 5578 5577 5575 5574 5573 5572 5571 5570 5570 5569 5568 5568 5569 5569 5569 5569
5605 5604 5603 5601 5600 5598 5597 5595 5593 5591 5589 5587 5585 5583 5581 5580 5578 5576 5575 5574 5573 5571 5569 5568 5567 5566 5565 5563 5562 5561 5559 5558 5557 5556 5556 5555 5555 5555 5555 5555 5554 5555 5555
5595 5593 5592 5591 5589 5587 5585 5584 5582 5580 5578 5576 5574 5571 5569 5568 5566 5564 5563 5562 5560 5559 5557 5555 5554 5553 5551 5549 5548 5547 5545 5544 5544 5543 5542 5542 5542 5542 5542 5542 5542 5541 5541
5584 5582 5581 5580 5578 5576 5574 5573 5571 5569 5567 5565 5563 5560 5558 5557 5555 5553 5551 5550 5548 5546 5544 5542 5541 5540 5538 5536 5534 5532 5531 5531 5530 5529 5529 5529 5529 5529 5529 5528 5528 5528 5528
5573 5572 5571 5569 5567 5565 5564 5562 5560 5558 5556 5554 5552 5550 5548 5546 5544 5542 5540 5538 5536 5534 5532 5530 5529 5527 5525 5522 5520 5518 5517 5518 5518 5517 5516 5516 5515 5515 5515 5515 5515 5515 5515
5563 5562 5560 5558 5557 5555 5553 5551 5550 5548 5546 5543 5541 5539 5537 5535 5533 5531 5529 5527 5525 5522 5520 5518 5516 5514 5512 5510 5508 5506 5504 5504 5504 5503 5502 5503 5502 5502 5502 5502 5502 5502 5502
5552 5551 5549 5548 5546 5545 5543 5541 5539 5537 5535 5533 5531 5529 5527 5524 5522 5520 5518 5516 5513 5511 5508 5506 5504 5502 5499 5496 5494 5493 5492 5491 5491 5490 5488 5489 5489 5488 5488 5488 5488 5489 5489
5542 5541 5539 5537 5536 5534 5532 5531 5528 5526 5524 5522 5520 5518 5516 5514 5511 5509 5507 5505 5502 5499 5496 5494 5492 5489 5487 5485 5483 5481 5480 5479 5479 5477 5475 5475 5475 5475 5475 5476 5476 5476 5476
5532 5531 5529 5527 5526 5524 5522 5520 5518 5516 5514 5512 5510 5507 5505 5503 5500 5497 5495 5493 5490 5487 5485 5482 5480 5478 5475 5473 5471 5469 5468 5466 5465 5465 5464 5462 5462 5461 5463 5464 5464 5463 5463